Location: Newton_Old_St_Pauls
(35.6750°N, 81.2580°W)
Time: 18:07:36
(UTC-04:00)

Daily predictions for brighter satellites

Satellite Brightness Start Highest point End
(mag) Time Altitude Azimuth Time Altitude Azimuth Time Altitude Azimuth
Cosmos 1606 Rocket 3.6 20:56:52 10° N 21:01:20 80° E 21:05:41 10° S
ATLAS 3B R/B 4.1 20:56:30 10° SSE 21:01:46 20° ESE 21:07:00 10° ENE
deb Chang Zheng 4 4.3 20:58:18 10° NNE 21:02:17 34° E 21:06:14 10° SSE
Meteor 1-19 Rocket 4.3 20:56:51 10° S 21:02:28 89° W 21:08:05 10° N
H-2A R/B 2.8 21:02:47 10° SSE 21:06:42 69° ENE 21:10:39 10° N
H-2A R/B 3.1 21:03:03 10° SE 21:06:46 30° ENE 21:10:33 10° N
DEBRIS 4.2 21:07:25 10° NW 21:13:15 33° NNE 21:15:43 10° E
Cosmos 1626 Rocket 4.2 21:10:14 10° SSE 21:14:16 35° E 21:18:18 10° NNE
Abrixas rocket 2.3 21:14:42 10° NW 21:18:07 74° NE 21:21:07 13° ESE
Cosmos 2228 3.3 21:16:33 10° N 21:20:52 52° E 21:25:09 10° SSE
Okean 2 3.5 21:17:01 10° S 21:21:11 85° W 21:25:23 10° N
ISS -3.4 21:18:59 10° SW 21:22:14 76° SE 21:25:30 10° NE
ERS-1 Rocket 3.1 21:17:51 10° SSE 21:22:45 60° ENE 21:27:42 10° N
ALOS 2.8 21:24:23 10° S 21:28:58 60° W 21:33:36 10° NNW
Lacrosse 4 Rocket 3.1 21:30:12 14° ESE 21:30:26 14° ESE 21:32:32 10° ENE
PSLV R/B 4.3 21:27:30 10° W 21:30:55 50° NNW 21:34:24 10° ENE
Cosmos 2278 Rocket 4.1 21:26:51 10° NW 21:31:31 27° WSW 21:36:11 10° SSW
APEX 3.8 21:27:26 10° NNW 21:31:47 81° ENE 21:37:10 12° SSE
Milstar 3 Cent rocket 3.8 21:24:12 10° W 21:31:48 31° SSW 21:36:00 13° SSE
Envisat 3.7 21:28:21 13° SE 21:32:25 38° ENE 21:37:05 10° N
Timation 1 Rocket 4.5 21:27:19 10° NNW 21:33:17 64° ENE 21:38:25 14° SE
Nimbus 7 Rocket 4.5 21:30:43 10° NNE 21:36:35 59° ESE 21:42:21 10° S
SPOT 5 3.5 21:34:22 16° SE 21:37:15 32° ENE 21:41:06 10° N
CZ-2C R/B 0.7 21:35:42 14° S 21:37:33 62° W 21:39:50 10° NNW
Cosmos 2369 Rocket 3.7 21:39:15 10° N 21:43:38 22° ENE 21:46:52 14° E
CZ-4 SHROUD 4.0 21:43:53 23° ESE 21:45:12 34° ENE 21:48:07 10° N
Cosmos 1666 3.0 21:44:00 10° NNW 21:47:53 71° W 21:51:35 11° S
SL-16 R/B 4.4 21:44:59 10° WSW 21:49:48 28° WNW 21:54:38 10° N
Cosmos 1891 Rocket 4.4 21:45:50 10° N 21:51:58 89° W 21:58:00 10° S
ATLAS CENTAUR Rocket 4.2 21:48:37 10° WSW 21:54:56 58° SSE 22:43:37 10° E
ATLAS CENTAUR Rocket 4.2 21:48:36 10° WSW 21:54:56 58° SSE 22:43:37 10° E
ATLAS CENTAUR Rocket 4.2 21:48:36 10° WSW 21:54:57 58° SSE 22:43:37 10° E
Cosmos 1461 2.9 21:50:42 10° NNW 21:54:57 79° WSW 21:57:21 24° SSE
PSLV R/B 3.2 22:01:57 39° SE 22:02:52 62° ENE 22:05:56 10° N
Atlas Centaur 2 3.0 21:55:47 10° WSW 22:02:55 58° S 22:09:41 16° E
Cosmos 1992 Rocket 4.3 22:05:31 10° N 22:10:35 49° ENE 22:12:50 30° SE
Cosmos 1515 3.6 22:13:45 27° S 22:15:46 85° E 22:19:38 10° N
YAOGAN 6 3.1 22:17:10 40° ESE 22:17:48 45° ENE 22:21:24 10° N
Tsikada Rocket 4.5 22:12:07 10° SSW 22:18:28 64° W 22:24:48 10° N
Cosmos 1939 Rocket 3.7 22:15:40 18° S 22:18:29 49° W 22:22:31 10° NNW
Cosmos 1066 Rocket 4.3 22:16:11 23° S 22:19:43 63° E 22:25:26 10° NNE
SeaSat 1 2.4 22:21:31 35° SE 22:23:38 77° ENE 22:28:35 10° NNW
Cosmos 1825 Rocket 3.5 22:22:14 33° S 22:24:08 72° E 22:28:34 10° N
H-2A R/B 3.4 22:26:31 20° E 22:27:30 22° ENE 22:31:17 10° NNE
Geosat 4.4 22:23:43 10° NE 22:28:24 38° ESE 22:28:49 37° ESE
Cosmos 1190 Rocket 3.9 22:25:34 18° S 22:29:31 79° ESE 22:34:51 10° NNE
Cosmos 1812 Rocket 4.4 22:29:22 10° NNW 22:33:36 48° W 22:35:58 24° SSW
COSMOS 2455 3.9 22:27:57 10° SW 22:33:41 47° WNW 22:39:28 10° NNE
SPOT 1/Viking Rocket 3.5 22:34:19 41° SSE 22:36:07 74° ENE 22:41:17 10° N
MetOp-A 4.2 22:34:38 32° S 22:37:13 76° WSW 22:42:36 10° NNW
CZ-4B R/B 3.6 22:32:27 10° N 22:37:34 76° WNW 22:41:24 19° SSW
Cosmos 1943 3.5 22:35:32 10° SSW 22:41:09 69° WNW 22:46:50 10° NNE
Cosmos 1346 Rocket 2.6 22:41:40 71° S 22:42:04 87° E 22:46:00 10° N
H-2A R/B 4.3 22:39:43 10° SW 22:42:47 19° W 22:45:55 10° NW
Cosmos 1943 Rocket 3.4 22:40:09 10° N 22:44:51 27° ENE 22:46:09 25° E
Cosmos 676 Rocket 4.0 22:44:54 46° SSE 22:46:22 65° ESE 22:51:39 10° NNE
Cosmos 2142 Rocket 4.4 22:41:50 10° N 22:48:09 88° E 22:50:41 39° S
ATLAS 3B R/B 3.1 22:44:05 10° SW 22:51:48 76° WNW 22:59:24 10° NNE
USA 245 4.3 22:51:01 38° S 22:53:24 75° WSW 22:58:41 10° NNW
Cosmos 1842 4.2 22:54:29 36° NE 22:54:29 36° NE 22:57:13 10° NNE
SL-08 RB Rocket 3.6 22:53:21 66° ESE 22:53:49 73° ENE 22:58:20 10° N
Meteor 1-21 4.2 22:55:45 46° S 22:57:31 79° E 23:03:21 10° NNE
Cosmos 1634 Rocket 4.1 22:51:42 10° N 22:57:51 73° W 23:00:25 37° S
ISS 0.1 22:57:12 10° WNW 22:59:01 14° NNW 23:00:51 10° N
DMSP B5D2-2 4.5 22:54:09 10° NNE 22:58:58 44° E 22:58:58 44° E
USA 234 3.3 23:03:51 43° ESE 23:06:09 76° NE 23:12:44 10° NW
Lacrosse 4 Rocket 2.7 23:06:24 20° WSW 23:08:45 38° WNW 23:12:35 10° N
Landsat 7 3.7 23:10:50 79° ESE 23:10:58 80° ENE 23:15:44 10° N
ARGOS 3.5 23:14:27 47° SSW 23:15:41 59° WSW 23:21:03 10° NNW
SL-24 R/B 4.4 23:11:10 10° N 23:16:12 86° E 23:16:42 74° S
Cosmos 407 Rocket 4.4 23:13:07 20° SW 23:16:26 47° WNW 23:21:29 10° N
Spot 4 4.3 23:17:06 48° ENE 23:17:06 48° ENE 23:21:26 10° N
Cosmos 1766 3.8 23:15:19 10° NNW 23:18:39 58° NW 23:18:39 58° NW
Cosmos 2279 Rocket 3.9 23:13:45 10° N 23:20:02 85° W 23:21:24 58° S
Cosmos-2242 3.4 23:21:16 10° N 23:24:56 60° NNE 23:24:56 60° NNE
Cosmos 1932 4.4 23:23:15 35° SW 23:25:59 80° WNW 23:32:14 10° NNE
Terra 1.8 23:27:07 74° NNE 23:27:07 74° NNE 23:31:34 10° N
Cosmos 2369 Rocket 2.8 23:22:29 10° NW 23:27:51 46° WSW 23:28:41 43° SW
Cosmos 1607 3.9 23:29:24 62° ESE 23:29:24 62° ESE 23:35:20 10° NE
USA 238 DEB 3.6 23:28:44 39° SSW 23:31:43 88° ESE 23:38:50 10° NNE
USA 238 3.6 23:28:57 40° SSW 23:31:50 87° ESE 23:38:56 10° NNE
Cosmos 2208 Rocket 4.5 23:36:11 10° N 23:40:44 50° NE 23:40:44 50° NE
